This demonstration page uses our WeatherBlox Daily Observations layout. Learn more.

Left ArrowRight Arrow

39.12711, -84.51439

Hourly Observations for September 29, 2021

Temp ( °F °C ) Dew Point ( °F °C ) Humidity (%) Winds ( mph kmh ) Pressure ( in mb ) Visibility ( mi km ) Precip ( " mm )
12:07 am 00:07 Clear with Mist and Fog 62 16.7 62 16.7 100 100 Calm 29.98 1015 2 2 0.00 0.00
12:18 am 00:18 Clear with Mist and Fog 62 16.7 62 16.7 100 100 Calm 29.98 1015 1 1 0.00 0.00
12:24 am 00:24 Clear with Mist and Fog 63 17.2 63 17.2 100 100 Calm 29.98 1015 3 4 0.00 0.00
12:31 am 00:31 Clear with Mist and Fog 63 17.2 63 17.2 100 100 Calm 29.98 1015 3 5 0.00 0.00
12:53 am 00:53 Clear with Mist and Fog 63 17.2 63 17.2 100 100 Calm 29.98 1015 2 3 0.00 0.00
12:58 am 00:58 Clear with Mist and Fog 63 17.2 63 17.2 100 100 Calm 29.98 1015 1 1 0.00 0.00
1:20 am 01:20 Clear with Mist and Fog 61 16.1 61 16.1 100 100 Calm 29.99 1015 1 2 0.00 0.00
1:27 am 01:27 Clear with Fog 61 16.1 61 16.1 100 100 Calm 29.99 1015 1 1 0.00 0.00
1:37 am 01:37 Mostly Cloudy with Fog 61 16.1 61 16.1 100 100 Calm 29.99 1015 0 0 0.00 0.00
1:50 am 01:50 Mostly Cloudy with Mist and Fog 61 16 61 16 100 100 Calm 30.00 1016 1 2 0.00 0.00
1:53 am 01:53 Mostly Clear with Mist and Fog 60 15.6 60 15.6 100 100 Calm 29.99 1016 3 5 0.00 0.00
1:55 am 01:55 Mostly Clear with Mist and Fog 60 15.6 60 15.6 100 100 Calm 30.00 1016 1 2 0.00 0.00
1:57 am 01:57 Mostly Cloudy with Mist and Fog 60 15.6 60 15.6 100 100 Calm 30.00 1016 1 1 0.00 0.00
2:05 am 02:05 Clear with Fog 61 16.1 61 16.1 100 100 Calm 30.00 1016 1 1 0.00 0.00
2:16 am 02:16 Mostly Cloudy with Fog 61 16.1 61 16.1 100 100 Calm 30.00 1016 0 0 0.00 0.00
2:37 am 02:37 Mostly Cloudy with Mist and Fog 60 15.6 60 15.6 100 100 Calm 30.00 1016 1 2 0.00 0.00
2:41 am 02:41 Mostly Clear with Mist and Fog 60 15.6 60 15.6 100 100 Calm 30.01 1016 2 3 0.00 0.00
2:48 am 02:48 Mostly Cloudy with Mist and Fog 61 16 61 16 100 100 Calm 30.01 1016 1 2 0.00 0.00
2:53 am 02:53 Mostly Cloudy with Fog 60 15.6 60 15.6 100 100 NE 3 6 29.99 1016 0 0 0.00 0.00
3:07 am 03:07 Mostly Cloudy with Fog 60 15.6 60 15.6 100 100 NE 3 6 30.01 1016 1 1 0.00 0.00
3:15 am 03:15 Mostly Cloudy with Mist and Fog 60 15.6 60 15.6 100 100 ENE 3 6 30.01 1016 1 1 0.00 0.00
3:27 am 03:27 Mostly Clear with Mist and Fog 60 15.6 60 15.6 100 100 Calm 30.01 1016 1 2 0.00 0.00
3:35 am 03:35 Mostly Cloudy with Mist and Fog 59 15 59 15 100 100 Calm 30.01 1016 1 1 0.00 0.00
3:45 am 03:45 Mostly Cloudy with Fog 59 15 59 15 100 100 Calm 30.01 1016 0 0 0.00 0.00
3:53 am 03:53 Mostly Cloudy with Fog 60 15.6 60 15.6 100 100 Calm 30.00 1016 0 0 0.00 0.00
4:14 am 04:14 Mostly Cloudy with Fog 58 14.4 58 14.4 100 100 Calm 30.02 1017 1 1 0.00 0.00
4:19 am 04:19 Mostly Cloudy with Fog 60 15.6 60 15.6 100 100 Calm 30.02 1016 0 0 0.00 0.00
4:40 am 04:40 Mostly Cloudy with Fog 58 14.4 58 14.4 100 100 Calm 30.03 1017 0 0 0.00 0.00
4:53 am 04:53 Mostly Cloudy with Fog 57 13.9 57 13.9 100 100 Calm 30.02 1017 0 0 0.00 0.00
5:18 am 05:18 Mostly Cloudy with Fog 57 13.9 57 13.9 100 100 Calm 30.04 1017 1 1 0.00 0.00
5:27 am 05:27 Mostly Cloudy with Fog 57 13.9 57 13.9 100 100 Calm 30.04 1017 0 0 0.00 0.00
5:38 am 05:38 Mostly Cloudy with Fog 57 13.9 57 13.9 100 100 Calm 30.04 1017 1 1 0.00 0.00
5:45 am 05:45 Mostly Cloudy with Fog 57 13.9 57 13.9 100 100 Calm 30.04 1017 0 0 0.00 0.00
5:53 am 05:53 Mostly Cloudy with Fog 57 13.9 57 13.9 100 100 Calm 30.03 1017 0 0 0.00 0.00
6:06 am 06:06 Mostly Cloudy with Fog 57 13.9 57 13.9 100 100 Calm 30.04 1017 1 1 0.00 0.00
6:10 am 06:10 Cloudy with Mist and Fog 57 13.9 57 13.9 100 100 Calm 30.05 1018 2 2 0.00 0.00
6:16 am 06:16 Mostly Cloudy with Fog 56 13.3 56 13.3 100 100 Calm 30.05 1018 0 0 0.00 0.00
6:33 am 06:33 Mostly Cloudy with Mist and Fog 57 13.9 57 13.9 100 100 Calm 30.06 1018 1 1 0.00 0.00
6:41 am 06:41 Mostly Cloudy with Mist and Fog 56 13.3 56 13.3 100 100 Calm 30.06 1018 2 3 0.00 0.00
6:48 am 06:48 Mostly Cloudy with Mist and Fog 55 13 55 13 100 100 Calm 30.06 1018 1 2 0.00 0.00
6:53 am 06:53 Mostly Cloudy with Fog 56 13.3 56 13.3 100 100 Calm 30.05 1018 1 1 0.00 0.00
6:57 am 06:57 Mostly Cloudy with Fog 57 13.9 57 13.9 100 100 Calm 30.06 1018 1 1 0.00 0.00
7:04 am 07:04 Clear with Patchy Fog 57 13.9 57 13.9 100 100 Calm 30.06 1018 2 3 0.00 0.00
7:27 am 07:27 Clear with Patchy Fog 56 13.3 56 13.3 100 100 Calm 30.06 1018 6 10 0.00 0.00
7:53 am 07:53 Sunny with Patchy Fog 56 13.3 56 13.3 100 100 Calm 30.06 1018 6 10 0.00 0.00
8:00 am 08:00 Mostly Cloudy with Patchy Fog 56 13.3 56 13.3 100 100 Calm 30.07 1018 1 1 0.00 0.00
8:02 am 08:02 Partly Cloudy with Patchy Fog 57 13.9 57 13.9 100 100 Calm 30.07 1018 2 3 0.00 0.00
8:10 am 08:10 Mostly Cloudy with Patchy Fog 58 14.4 58 14.4 100 100 Calm 30.07 1018 1 2 0.00 0.00
8:15 am 08:15 Sunny with Patchy Fog 58 14.4 58 14.4 100 100 Calm 30.08 1019 1 1 0.00 0.00
8:24 am 08:24 Sunny with Patchy Fog 57 13.9 57 13.9 100 100 Calm 30.08 1019 6 10 0.00 0.00
8:53 am 08:53 Sunny 60 15.6 60 15.6 100 100 NE 3 6 30.08 1019 10 16 0.00 0.00
9:53 am 09:53 Mostly Sunny 65 18.3 60 15.6 84 84 NNE 6 9 30.09 1019 10 16 0.00 0.00
10:53 am 10:53 Sunny 69 20.6 61 16.1 76 76 NNE 5 7 30.09 1019 10 16 0.00 0.00
11:53 am 11:53 Sunny 74 23.3 63 17.2 69 69 NNE 5 7 30.08 1019 10 16 0.00 0.00
12:53 pm 12:53 Sunny 78 25.6 63 17.2 60 60 NE 9 15 30.07 1018 10 16 0.00 0.00
1:53 pm 13:53 Sunny 79 26.1 63 17.2 58 58 NE 6 9 30.06 1018 10 16 0.00 0.00
2:53 pm 14:53 Sunny 81 27.2 61 16.1 51 51 NNE 5 7 30.04 1017 10 16 0.00 0.00
3:53 pm 15:53 Sunny 82 27.8 60 15.6 47 47 Calm 30.03 1017 10 16 0.00 0.00
4:53 pm 16:53 Sunny 82 27.8 60 15.6 47 47 ENE 7 11 30.02 1017 10 16 0.00 0.00
5:53 pm 17:53 Sunny 81 27.2 59 15 47 47 ENE 3 6 30.02 1017 10 16 0.00 0.00
6:53 pm 18:53 Sunny 76 24.4 63 17.2 64 64 ENE 5 7 30.03 1017 10 16 0.00 0.00
7:53 pm 19:53 Clear 66 18.9 62 16.7 87 87 Calm 30.04 1017 10 16 0.00 0.00
8:53 pm 20:53 Clear 63 17.2 61 16.1 93 93 ENE 3 6 30.06 1018 10 16 0.00 0.00
9:53 pm 21:53 Clear 62 16.7 61 16.1 96 96 Calm 30.07 1018 10 16 0.00 0.00
10:53 pm 22:53 Clear 59 15 59 15 100 100 Calm 30.09 1019 10 16 0.00 0.00
11:53 pm 23:53 Clear 59 15 58 14.4 96 96 ENE 5 7 30.11 1020 10 16 0.00 0.00

Powered by AerisWeather